Location: Newark
(4.6381°N, 74.0644°W)
Time: 21:03:57
(UTC+00:00)

Envisat - Visible Passes

Search period start: 21 October 2019 00:00
Search period end: 31 October 2019 00:00
Orbit: 764 x 766 km, 98.1° (Epoch: 21 October)

Date Brightness Start Highest point End Pass type
(mag) Time Alt. Az. Time Alt. Az. Time Alt. Az.
21 Oct 4.7 00:00:36 10° SSW 00:05:10 34° WSW 00:09:43 10° NW visible
21 Oct 2.9 23:23:24 10° SSE 23:28:29 83° E 23:33:33 10° N visible
23 Oct 5.9 00:27:29 10° SW 00:30:36 16° WSW 00:33:43 10° WNW visible
23 Oct 4.1 23:49:04 10° S 23:53:55 46° WSW 23:58:46 10° NNW visible
24 Oct 3.0 23:12:15 10° SSE 23:17:15 61° ENE 23:22:14 10° N visible
26 Oct 5.4 00:15:28 10° SSW 00:19:22 22° WSW 00:23:15 10° NW visible
26 Oct 3.5 23:37:40 10° S 23:42:41 64° WSW 23:47:41 10° NNW visible
27 Oct 3.3 23:01:12 10° SSE 23:06:01 44° ENE 23:10:48 10° N visible
28 Oct 6.3 00:44:20 10° WSW 00:44:48 10° W 00:45:16 10° W visible
29 Oct 4.9 00:03:43 10° SSW 00:08:07 30° WSW 00:12:31 10° NW visible
29 Oct 3.0 23:26:21 10° S 23:31:27 87° W 23:36:31 10° NNW visible
